Location: Sternwarte ZA, Rosenfeld-Brittheim
(48.2889°N, 8.6789°E)
Time: 06:53:20
(UTC+01:00)

ISS - Pass Details

Date: 03 December 2021
Orbit: 413 x 423 km, 51.6° (Epoch: 20 January)

Event Time Altitude Azimuth Distance (km) Brightness Sun altitude
Rises 17:04:07 0° 285° (WNW) 2,384 0.9 -5.4°
Reaches altitude 10° 17:06:16 10° 291° (WNW) 1,516 -0.3 -5.7°
Maximum altitude 17:09:35 48° 7° (N) 560 -3.3 -6.2°
Drops below altitude 10° 17:12:53 10° 84° (E) 1,509 -1.5 -6.7°
Enters shadow 17:13:26 - 86° (E) 1,722 -1.2 -6.8°
